K9BM Weather Reports


time (UTC)temp
C
wind
direction
speed
KPH
gust
KPH
rain 1hr
cm
rain 24hr
cm
rain mn
cm
humidity
%
barometer
mb
20260906101005 12 27 3.2 11.3 0.00 0.00 0.00 68 1009.9
20260906100006 13 24 3.2 8.0 0.00 0.00 0.00 64 1009.9
20260906095506 13 27 3.2 8.0 0.00 0.00 0.00 62 1009.9
20260906095006 13 25 4.8 8.0 0.00 0.00 0.00 62 1009.9
20260906094505 13 43 4.8 8.0 0.00 0.00 0.00 61 1009.9
20260906094005 13 49 4.8 8.0 0.00 0.00 0.00 59 1009.9
20260906093506 14 54 3.2 4.8 0.00 0.00 0.00 58 1010.0
20260906093005 14 55 3.2 4.8 0.00 0.00 0.00 57 1010.0
20260906092005 14 56 4.8 8.0 0.00 0.00 0.00 57 1010.1
20260906091005 14 52 3.2 8.0 0.00 0.00 0.00 57 1010.1
20260906090006 14 63 4.8 8.0 0.00 0.00 0.00 57 1010.2
20260906085505 14 61 3.2 9.7 0.00 0.00 0.00 57 1010.1
20260906085006 14 58 6.4 9.7 0.00 0.00 0.00 58 1010.0
20260906084506 14 54 6.4 9.7 0.00 0.00 0.00 58 1009.9
20260906084006 14 56 4.8 9.7 0.00 0.00 0.00 57 1010.0
20260906083505 14 57 4.8 9.7 0.00 0.00 0.00 57 1009.9
20260906083005 14 35 4.8 8.0 0.00 0.00 0.00 57 1010.1
20260906082505 14 29 4.8 9.7 0.00 0.00 0.00 57 1010.2
20260906082005 14 32 6.4 9.7 0.00 0.00 0.00 56 1010.1
20260906081505 15 30 8.0 11.3 0.00 0.00 0.00 56 1010.1
20260906081005 15 45 6.4 14.5 0.00 0.00 0.00 55 1010.3
20260906080005 15 45 8.0 12.9 0.00 0.00 0.00 55 1010.2
20260906075505 15 40 6.4 12.9 0.00 0.00 0.00 54 1010.2
20260906075005 15 27 8.0 12.9 0.00 0.00 0.00 54 1010.1
20260906074505 15 27 6.4 11.3 0.00 0.00 0.00 53 1010.2
20260906074005 15 77 4.8 8.0 0.00 0.00 0.00 52 1010.3
20260906073505 15 78 3.2 8.0 0.00 0.00 0.00 52 1010.5
20260906073005 16 79 3.2 4.8 0.00 0.00 0.00 51 1010.5
20260906072505 16 79 3.2 4.8 0.00 0.00 0.00 50 1010.5
20260906071505 16 80 4.8 8.0 0.00 0.00 0.00 51 1010.5
20260906071005 16 81 3.2 4.8 0.00 0.00 0.00 51 1010.6
20260906070005 16 83 3.2 8.0 0.00 0.00 0.00 49 1010.6
20260906065505 16 85 4.8 11.3 0.00 0.00 0.00 49 1010.6
20260906065005 16 85 8.0 11.3 0.00 0.00 0.00 49 1010.6
20260906064505 16 89 4.8 11.3 0.00 0.00 0.00 50 1010.6
20260906064005 16 81 4.8 9.7 0.00 0.00 0.00 50 1010.6
20260906063505 16 92 4.8 9.7 0.00 0.00 0.00 51 1010.7
20260906063005 16 95 3.2 9.7 0.00 0.00 0.00 51 1010.6
20260906061505 16 95 6.4 9.7 0.00 0.00 0.00 50 1010.6
20260906061005 16 89 8.0 9.7 0.00 0.00 0.00 49 1010.6
20260906055505 16 83 3.2 8.0 0.00 0.00 0.00 47 1010.5
20260906055005 17 83 4.8 12.9 0.00 0.00 0.00 46 1010.4
20260906054505 17 76 6.4 14.5 0.00 0.00 0.00 45 1010.3
20260906054005 17 53 9.7 14.5 0.00 0.00 0.00 45 1010.4
20260906052505 17 69 3.2 9.7 0.00 0.00 0.00 44 1010.4
20260906052005 17 61 6.4 9.7 0.00 0.00 0.00 44 1010.5
20260906051505 17 56 8.0 9.7 0.00 0.00 0.00 44 1010.5
20260906051005 17 59 4.8 8.0 0.00 0.00 0.00 44 1010.6
20260906050005 17 59 6.4 8.0 0.00 0.00 0.00 43 1010.7
20260906045505 18 60 4.8 9.7 0.00 0.00 0.00 43 1010.6
20260906045005 18 62 8.0 9.7 0.00 0.00 0.00 42 1010.6
20260906044505 18 66 4.8 8.0 0.00 0.00 0.00 42 1010.6
20260906044005 18 76 3.2 4.8 0.00 0.00 0.00 42 1010.5
20260906043505 18 76 4.8 4.8 0.00 0.00 0.00 42 1010.6
20260906043005 18 78 3.2 12.9 0.00 0.00 0.00 41 1010.5
20260906042505 18 79 4.8 12.9 0.00 0.00 0.00 41 1010.6
20260906042005 18 80 6.4 11.3 0.00 0.00 0.00 41 1010.5
20260906041505 18 64 4.8 12.9 0.00 0.00 0.00 41 1010.5
20260906035506 18 62 9.7 12.9 0.00 0.00 0.00 40 1010.4
20260906035005 18 79 4.8 8.0 0.00 0.00 0.00 40 1010.4
20260906034005 18 66 6.4 12.9 0.00 0.00 0.00 40 1010.3
20260906033505 18 59 8.0 9.7 0.00 0.00 0.00 40 1010.3
20260906033006 18 56 4.8 9.7 0.00 0.00 0.00 40 1010.3
20260906032505 18 56 6.4 8.0 0.00 0.00 0.00 40 1010.3
20260906031505 19 58 4.8 11.3 0.00 0.00 0.00 39 1010.2
20260906030005 19 59 4.8 8.0 0.00 0.00 0.00 40 1010.0
20260906025505 20 61 3.2 11.3 0.00 0.00 0.00 39 1010.0
20260906025007 20 58 6.4 11.3 0.00 0.00 0.00 39 1009.9
20260906024505 20 55 3.2 11.3 0.00 0.00 0.00 38 1009.9
20260906024005 20 53 4.8 11.3 0.00 0.00 0.00 38 1009.7
20260906023505 20 90 8.0 16.1 0.00 0.00 0.00 38 1009.5
20260906023005 20 100 8.0 16.1 0.00 0.00 0.00 38 1009.5
20260906022505 20 96 11.3 16.1 0.00 0.00 0.00 37 1009.4
20260906022005 20 100 11.3 16.1 0.00 0.00 0.00 37 1009.5
20260906020004 21 106 12.9 19.3 0.00 0.00 0.00 35 1009.3
20260906015505 21 101 11.3 20.9 0.00 0.00 0.00 34 1009.2
20260906015005 22 103 16.1 20.9 0.00 0.00 0.00 34 1009.1
20260906014505 22 98 16.1 20.9 0.00 0.00 0.00 33 1009.0
20260906014005 22 107 16.1 25.7 0.00 0.00 0.00 33 1009.0
20260906013505 22 103 17.7 25.7 0.00 0.00 0.00 32 1009.0
20260906013005 23 107 16.1 24.1 0.00 0.00 0.00 31 1008.9
20260906012005 23 95 16.1 24.1 0.00 0.00 0.00 30 1008.8
20260906011505 23 98 14.5 24.1 0.00 0.00 0.00 29 1008.8
20260906011005 24 85 16.1 25.7 0.00 0.00 0.00 28 1008.8
20260906010004 24 87 14.5 25.7 0.00 0.00 0.00 27 1008.8
20260906005505 24 84 19.3 25.7 0.00 0.00 0.00 27 1008.7
20260906005005 24 87 16.1 25.7 0.00 0.00 0.00 27 1008.7
20260906004505 25 63 14.5 24.1 0.00 0.00 0.00 27 1008.7
20260906004005 25 77 17.7 24.1 0.00 0.00 0.00 27 1008.6
20260906003005 25 71 17.7 27.4 0.00 0.00 0.00 26 1008.6
20260906002505 25 49 16.1 22.5 0.00 0.00 0.00 26 1008.6
20260906002006 25 57 14.5 22.5 0.00 0.00 0.00 26 1008.6
20260906001505 25 84 14.5 19.3 0.00 0.00 0.00 26 1008.6
20260906001005 25 88 14.5 25.7 0.00 0.00 0.00 26 1008.7
20260906000005 25 85 14.5 25.7 0.00 0.00 0.00 26 1008.7
20260905235505 25 89 17.7 24.1 0.00 0.00 0.00 26 1008.7
20260905235005 25 70 14.5 25.7 0.00 0.00 0.00 26 1008.7
20260905234505 25 108 19.3 29.0 0.00 0.00 0.00 26 1008.6
20260905234005 25 85 14.5 29.0 0.00 0.00 0.00 26 1008.7
20260905233505 25 59 11.3 22.5 0.00 0.00 0.00 25 1008.6
20260905233005 25 100 14.5 25.7 0.00 0.00 0.00 25 1008.6
20260905232005 26 106 20.9 25.7 0.00 0.00 0.00 25 1008.6
20260905231505 25 85 12.9 25.7 0.00 0.00 0.00 25 1008.6
20260905231005 25 105 20.9 25.7 0.00 0.00 0.00 25 1008.5
20260905230005 25 93 16.1 25.7 0.00 0.00 0.00 26 1008.6
20260905225505 26 72 8.0 22.5 0.00 0.00 0.00 25 1008.6
20260905225005 26 81 12.9 27.4 0.00 0.00 0.00 25 1008.6
20260905224004 25 94 19.3 27.4 0.00 0.00 0.00 26 1008.6
20260905223505 25 84 14.5 29.0 0.00 0.00 0.00 26 1008.6
20260905223005 25 79 8.0 29.0 0.00 0.00 0.00 26 1008.6
20260905222505 25 81 14.5 29.0 0.00 0.00 0.00 27 1008.6
20260905222005 24 80 12.9 22.5 0.00 0.00 0.00 27 1008.7
20260905221505 24 57 11.3 25.7 0.00 0.00 0.00 28 1008.8
20260905221005 23 69 16.1 25.7 0.00 0.00 0.00 28 1008.8
20260905220005 24 59 14.5 22.5 0.00 0.00 0.00 28 1008.8
20260905215505 23 75 16.1 22.5 0.00 0.00 0.00 29 1008.9
20260905215004 23 50 16.1 24.1 0.00 0.00 0.00 29 1009.0
20260905214505 23 79 14.5 24.1 0.00 0.00 0.00 29 1009.0
20260905214005 23 89 12.9 20.9 0.00 0.00 0.00 29 1008.9
20260905213505 23 80 17.7 24.1 0.00 0.00 0.00 29 1009.0
20260905213005 23 95 14.5 32.2 0.00 0.00 0.00 29 1008.9
20260905212505 23 97 22.5 32.2 0.00 0.00 0.00 29 1008.9
20260905212005 23 68 12.9 22.5 0.00 0.00 0.00 29 1009.0
20260905211505 23 35 9.7 27.4 0.00 0.00 0.00 29 1009.0
20260905211005 24 60 16.1 27.4 0.00 0.00 0.00 28 1008.9
20260905210004 24 85 19.3 27.4 0.00 0.00 0.00 28 1009.1
20260905205505 25 96 16.1 29.0 0.00 0.00 0.00 27 1009.1
20260905205005 25 103 16.1 29.0 0.00 0.00 0.00 27 1009.0
20260905204504 25 94 9.7 29.0 0.00 0.00 0.00 27 1008.9
20260905203505 24 86 19.3 29.0 0.00 0.00 0.00 29 1009.1
20260905202505 23 57 19.3 27.4 0.00 0.00 0.00 30 1009.2
20260905202005 24 55 19.3 27.4 0.00 0.00 0.00 29 1009.3
20260905201504 23 105 14.5 22.5 0.00 0.00 0.00 30 1009.4
20260905201005 23 53 12.9 25.7 0.00 0.00 0.00 30 1009.4
20260905200004 23 101 16.1 27.4 0.00 0.00 0.00 31 1009.4
20260905195505 22 57 16.1 32.2 0.00 0.00 0.00 31 1009.3
20260905195005 22 69 20.9 32.2 0.00 0.00 0.00 31 1009.4
20260905194505 22 78 19.3 32.2 0.00 0.00 0.00 31 1009.5
20260905194005 23 53 14.5 25.7 0.00 0.00 0.00 31 1009.5
20260905193505 23 53 14.5 27.4 0.00 0.00 0.00 30 1009.5
20260905192504 23 70 19.3 27.4 0.00 0.00 0.00 32 1009.6
20260905191504 22 76 14.5 32.2 0.00 0.00 0.00 32 1009.6
20260905191005 22 48 16.1 32.2 0.00 0.00 0.00 31 1009.5
20260905190005 22 55 9.7 25.7 0.00 0.00 0.00 32 1009.7
20260905185505 22 78 19.3 32.2 0.00 0.00 0.00 32 1009.8
20260905184505 22 63 14.5 27.4 0.00 0.00 0.00 32 1009.8
20260905184005 22 62 14.5 29.0 0.00 0.00 0.00 31 1009.9
20260905183505 22 95 20.9 29.0 0.00 0.00 0.00 32 1010.0
20260905183005 22 75 16.1 32.2 0.00 0.00 0.00 32 1010.0
20260905182504 22 86 16.1 32.2 0.00 0.00 0.00 32 1010.1
20260905182005 22 86 20.9 29.0 0.00 0.00 0.00 32 1010.1
20260905181505 22 98 11.3 32.2 0.00 0.00 0.00 33 1010.2
20260905181005 21 105 20.9 32.2 0.00 0.00 0.00 34 1010.1
20260905180004 21 74 19.3 27.4 0.00 0.00 0.00 33 1010.4
20260905175505 21 93 16.1 27.4 0.00 0.00 0.00 34 1010.4
20260905175004 21 77 17.7 27.4 0.00 0.00 0.00 34 1010.4
20260905174004 21 85 16.1 25.7 0.00 0.00 0.00 35 1010.4
20260905173505 20 85 16.1 25.7 0.00 0.00 0.00 36 1010.4
20260905173005 20 89 14.5 27.4 0.00 0.00 0.00 38 1010.4
20260905172004 19 52 12.9 27.4 0.00 0.00 0.00 38 1010.5
20260905171004 18 58 14.5 24.1 0.00 0.00 0.00 40 1010.6
20260905170005 18 53 16.1 24.1 0.00 0.00 0.00 39 1010.7
20260905165504 18 76 11.3 25.7 0.00 0.00 0.00 39 1010.7
20260905165004 18 77 14.5 25.7 0.00 0.00 0.00 40 1010.7
20260905164505 18 58 14.5 25.7 0.00 0.00 0.00 40 1010.5
20260905164004 18 55 11.3 24.1 0.00 0.00 0.00 42 1010.6
20260905163505 18 56 12.9 24.1 0.00 0.00 0.00 41 1010.6
20260905163005 18 52 9.7 24.1 0.00 0.00 0.00 42 1010.5
20260905162504 18 73 9.7 20.9 0.00 0.00 0.00 42 1010.5
20260905162004 17 36 4.8 20.9 0.00 0.00 0.00 43 1010.6
20260905160004 17 62 8.0 19.3 0.00 0.00 0.00 44 1010.5
20260905155505 17 43 8.0 19.3 0.00 0.00 0.00 46 1010.5
20260905154504 16 25 4.8 16.1 0.00 0.00 0.00 48 1010.5
20260905154005 16 42 8.0 16.1 0.00 0.00 0.00 47 1010.5
20260905153005 16 48 8.0 19.3 0.00 0.00 0.00 48 1010.6
20260905152504 16 32 11.3 19.3 0.00 0.00 0.00 49 1010.7
20260905152005 16 36 9.7 19.3 0.00 0.00 0.00 49 1010.6
20260905151005 16 37 9.7 19.3 0.00 0.00 0.00 49 1010.7
20260905145504 15 18 11.3 20.9 0.00 0.00 0.00 50 1010.6
20260905145004 15 29 11.3 19.3 0.00 0.00 0.00 50 1010.7
20260905144005 15 27 9.7 20.9 0.00 0.00 0.00 52 1010.6
20260905143504 14 36 9.7 16.1 0.00 0.00 0.00 52 1010.6
20260905143005 14 30 11.3 20.9 0.00 0.00 0.00 52 1010.5
20260905142504 14 24 11.3 20.9 0.00 0.00 0.00 52 1010.5
20260905142005 14 49 8.0 19.3 0.00 0.00 0.00 52 1010.5
20260905141504 13 36 9.7 16.1 0.00 0.00 0.00 53 1010.5
20260905140005 13 23 8.0 19.3 0.00 0.00 0.00 55 1010.3
20260905135508 13 17 8.0 14.5 0.00 0.00 0.00 56 1010.3
20260905135004 13 15 6.4 14.5 0.00 0.00 0.00 56 1010.3
20260905134004 12 23 8.0 16.1 0.00 0.00 0.00 56 1010.0
20260905133005 12 15 9.7 16.1 0.00 0.00 0.00 56 1010.0
20260905132504 12 29 8.0 14.5 0.00 0.00 0.00 57 1009.9
20260905131005 11 45 8.0 12.9 0.00 0.00 0.00 59 1009.6
20260905130004 11 25 8.0 14.5 0.00 0.00 0.00 58 1009.3
20260905125005 11 33 8.0 14.5 0.00 0.00 0.00 58 1009.2
20260905124505 12 37 8.0 16.1 0.00 0.00 0.00 58 1009.1
20260905124005 11 46 8.0 16.1 0.00 0.00 0.00 58 1009.1
20260905123504 11 57 6.4 12.9 0.00 0.00 0.00 58 1009.0
20260905123004 11 34 8.0 12.9 0.00 0.00 0.00 58 1008.8
20260905122504 12 31 6.4 14.5 0.00 0.00 0.00 57 1008.8
20260905121504 12 36 8.0 16.1 0.00 0.00 0.00 56 1008.6
20260905121005 12 33 8.0 16.1 0.00 0.00 0.00 55 1008.5
20260905120005 12 31 9.7 19.3 0.00 0.00 0.00 55 1008.3
20260905115004 12 29 8.0 19.3 0.00 0.00 0.00 54 1008.0
20260905114504 12 29 9.7 19.3 0.00 0.00 0.00 54 1007.9
20260905114005 12 29 11.3 19.3 0.00 0.00 0.00 54 1008.0
20260905113505 12 48 8.0 16.1 0.00 0.00 0.00 54 1008.0
20260905113004 12 31 8.0 16.1 0.00 0.00 0.00 54 1007.9
20260905112504 12 42 4.8 14.5 0.00 0.00 0.00 54 1007.9
20260905112005 12 44 6.4 9.7 0.00 0.00 0.00 54 1007.8
20260905111004 12 41 4.8 9.7 0.00 0.00 0.00 56 1007.4
20260905105505 12 29 3.2 9.7 0.00 0.00 0.00 55 1007.2
20260905104505 12 48 8.0 14.5 0.00 0.00 0.00 55 1007.0
20260905104005 12 27 8.0 14.5 0.00 0.00 0.00 54 1007.1
20260905103505 12 53 8.0 14.5 0.00 0.00 0.00 54 1007.0
20260905102505 13 43 9.7 16.1 0.00 0.00 0.00 53 1007.0
20260905102005 13 59 8.0 19.3 0.00 0.00 0.00 53 1007.1
20260905101504 13 66 8.0 19.3 0.00 0.00 0.00 53 1007.0